CGI115 EINN-EINN

Flight info

Callsign CGI115
Flight time N/A
Altitude 2500
Route EINN DCT FOYNES DCT TARBERT DCY BALLYBUNION DCT KERRY HEAD DCT FENIT DCT CASTLEGREGORY DCT DINGLE DCT EIKY DCT ABBEYFEALE DCT FOYNES DCT EINN
Aircraft A189/L-SGY/A

Departure

Time 2026-04-27 19:04
Airport Shannon Airport (EINN)

Arrival

Time N/A
Airport Shannon Airport (EINN)
Time Latitude Longitude Altitude Speed Heading
2026-04-27 18:41 52.70434 -8.90769 18 ft 0 kts 46°
2026-04-27 19:03 52.70437 -8.90763 28 ft 1 kts 47°
2026-04-27 19:03 52.70442 -8.90773 273 ft 3 kts 48°
2026-04-27 19:03 52.70454 -8.90780 433 ft 4 kts 71°
2026-04-27 19:03 52.70464 -8.90776 479 ft 2 kts 95°
2026-04-27 19:04 52.70464 -8.90609 774 ft 23 kts 115°
2026-04-27 19:04 52.70283 -8.90266 911 ft 52 kts 209°
2026-04-27 19:04 52.69819 -8.90284 942 ft 92 kts 201°
2026-04-27 19:04 52.69100 -8.90872 969 ft 135 kts 212°
2026-04-27 19:05 52.68285 -8.91633 1022 ft 130 kts 219°
2026-04-27 19:05 52.67614 -8.92472 1003 ft 119 kts 223°
2026-04-27 19:05 52.66928 -8.93435 1025 ft 145 kts 224°
2026-04-27 19:05 52.66141 -8.94611 1275 ft 149 kts 233°
2026-04-27 19:06 52.65589 -8.95955 1401 ft 143 kts 246°
2026-04-27 19:06 52.65198 -8.97448 1457 ft 142 kts 257°
2026-04-27 19:06 52.64856 -8.98991 1481 ft 145 kts 251°
2026-04-27 19:06 52.64391 -9.00457 1494 ft 144 kts 247°
2026-04-27 19:07 52.63891 -9.01890 1498 ft 145 kts 245°
2026-04-27 19:07 52.63390 -9.03343 1500 ft 146 kts 248°
2026-04-27 19:07 52.62990 -9.04852 1501 ft 144 kts 256°
2026-04-27 19:07 52.62681 -9.06430 1511 ft 144 kts 259°
2026-04-27 19:08 52.62384 -9.08011 1509 ft 145 kts 258°
2026-04-27 19:08 52.62084 -9.09589 1511 ft 145 kts 256°
2026-04-27 19:08 52.61733 -9.11148 1512 ft 146 kts 254°
2026-04-27 19:08 52.61368 -9.12702 1515 ft 144 kts 254°
2026-04-27 19:09 52.61000 -9.14253 1511 ft 146 kts 255°
2026-04-27 19:09 52.60624 -9.15812 1514 ft 146 kts 254°
2026-04-27 19:09 52.60253 -9.17366 1511 ft 148 kts 253°
2026-04-27 19:09 52.59886 -9.18939 1518 ft 145 kts 255°
2026-04-27 19:10 52.59625 -9.20513 1513 ft 142 kts 263°
2026-04-27 19:10 52.59423 -9.22125 1512 ft 146 kts 265°
2026-04-27 19:10 52.59274 -9.23753 1526 ft 142 kts 268°
2026-04-27 19:10 52.59186 -9.24821 1519 ft 143 kts 268°
2026-04-27 19:11 52.58999 -9.27012 1514 ft 147 kts 268°
2026-04-27 19:11 52.58846 -9.28741 1531 ft 153 kts 268°
2026-04-27 19:11 52.58701 -9.30461 1525 ft 151 kts 268°
2026-04-27 19:11 52.58555 -9.32176 1524 ft 152 kts 268°
2026-04-27 19:12 52.58408 -9.33909 1526 ft 153 kts 268°
2026-04-27 19:12 52.58268 -9.35627 1528 ft 151 kts 267°
2026-04-27 19:12 52.58137 -9.37350 1530 ft 153 kts 268°
2026-04-27 19:12 52.57996 -9.39076 1538 ft 152 kts 268°
2026-04-27 19:13 52.57856 -9.40810 1529 ft 154 kts 269°
2026-04-27 19:13 52.57717 -9.42519 1534 ft 151 kts 268°
2026-04-27 19:13 52.57577 -9.44252 1528 ft 152 kts 268°
2026-04-27 19:13 52.57436 -9.45969 1533 ft 154 kts 268°
2026-04-27 19:14 52.57291 -9.47701 1536 ft 152 kts 268°
2026-04-27 19:14 52.57145 -9.49427 1533 ft 152 kts 268°
2026-04-27 19:14 52.57003 -9.51160 1536 ft 153 kts 268°
2026-04-27 19:14 52.56862 -9.52943 1510 ft 166 kts 268°
2026-04-27 19:15 52.56718 -9.54807 1540 ft 162 kts 269°
2026-04-27 19:15 52.56571 -9.56664 1537 ft 166 kts 268°
2026-04-27 19:15 52.56424 -9.58535 1539 ft 163 kts 269°
2026-04-27 19:15 52.56275 -9.60387 1534 ft 165 kts 268°
2026-04-27 19:16 52.55926 -9.62199 1535 ft 169 kts 246°
2026-04-27 19:16 52.55480 -9.63250 1538 ft 170 kts 236°
2026-04-27 19:16 52.54402 -9.65142 1535 ft 172 kts 221°
2026-04-27 19:16 52.53367 -9.66109 1545 ft 169 kts 208°
2026-04-27 19:17 52.52293 -9.66920 1536 ft 171 kts 206°
2026-04-27 19:17 52.51213 -9.67709 1536 ft 171 kts 206°
2026-04-27 19:17 52.50124 -9.68490 1544 ft 170 kts 206°
2026-04-27 19:17 52.49154 -9.69555 1538 ft 169 kts 227°
2026-04-27 19:18 52.48348 -9.70957 1540 ft 168 kts 232°
2026-04-27 19:18 52.47582 -9.72391 1534 ft 168 kts 233°
2026-04-27 19:18 52.46815 -9.73844 1537 ft 169 kts 232°
2026-04-27 19:18 52.46049 -9.75304 1536 ft 169 kts 233°
2026-04-27 19:19 52.45253 -9.76740 1538 ft 172 kts 227°
2026-04-27 19:19 52.44348 -9.78000 1544 ft 169 kts 222°
2026-04-27 19:19 52.43414 -9.79201 1539 ft 172 kts 221°
2026-04-27 19:19 52.42472 -9.80396 1537 ft 171 kts 221°
2026-04-27 19:20 52.41527 -9.81585 1539 ft 171 kts 221°
2026-04-27 19:20 52.40566 -9.82725 1532 ft 174 kts 212°
2026-04-27 19:20 52.39418 -9.83322 1549 ft 170 kts 192°
2026-04-27 19:20 52.38241 -9.83580 1537 ft 172 kts 187°
2026-04-27 19:21 52.37059 -9.83793 1537 ft 171 kts 187°
2026-04-27 19:21 52.35869 -9.83989 1540 ft 172 kts 187°
2026-04-27 19:21 52.34698 -9.84180 1542 ft 167 kts 187°
2026-04-27 19:21 52.33540 -9.84363 1540 ft 167 kts 187°
2026-04-27 19:22 52.32373 -9.84544 1541 ft 170 kts 187°
2026-04-27 19:22 52.31201 -9.84726 1542 ft 171 kts 187°
2026-04-27 19:22 52.30021 -9.84920 1533 ft 173 kts 187°
2026-04-27 19:22 52.28851 -9.85296 1547 ft 171 kts 204°
2026-04-27 19:23 52.27915 -9.86424 1539 ft 167 kts 234°
2026-04-27 19:23 52.27404 -9.88102 1543 ft 164 kts 263°
2026-04-27 19:23 52.27257 -9.89921 1534 ft 162 kts 271°
2026-04-27 19:23 52.27188 -9.91758 1544 ft 161 kts 272°
2026-04-27 19:24 52.27139 -9.93590 1548 ft 162 kts 274°
2026-04-27 19:24 52.27076 -9.95447 1545 ft 164 kts 274°
2026-04-27 19:24 52.26999 -9.97307 1542 ft 165 kts 273°
2026-04-27 19:24 52.26928 -9.99173 1542 ft 164 kts 273°
2026-04-27 19:25 52.26863 -10.01041 1540 ft 165 kts 273°
2026-04-27 19:25 52.26793 -10.02907 1543 ft 166 kts 273°
2026-04-27 19:25 52.26710 -10.04777 1545 ft 165 kts 273°
2026-04-27 19:25 52.26489 -10.06636 1541 ft 170 kts 256°
2026-04-27 19:26 52.25973 -10.08399 1546 ft 173 kts 244°
2026-04-27 19:26 52.25286 -10.09983 1549 ft 171 kts 236°
2026-04-27 19:26 52.24528 -10.11481 1708 ft 171 kts 234°
2026-04-27 19:26 52.23756 -10.12975 1794 ft 172 kts 234°
2026-04-27 19:27 52.22988 -10.14458 1816 ft 170 kts 234°
2026-04-27 19:27 52.22162 -10.15836 1824 ft 174 kts 224°
2026-04-27 19:27 52.21170 -10.17021 1834 ft 175 kts 217°
2026-04-27 19:27 52.20190 -10.18137 1841 ft 173 kts 220°
2026-04-27 19:28 52.19247 -10.19346 1846 ft 170 kts 221°
2026-04-27 19:28 52.18324 -10.20582 1836 ft 175 kts 222°
2026-04-27 19:28 52.17432 -10.21903 1841 ft 173 kts 229°
2026-04-27 19:28 52.16623 -10.23341 1834 ft 173 kts 231°
2026-04-27 19:29 52.15768 -10.24714 1847 ft 171 kts 226°
2026-04-27 19:29 52.14885 -10.26018 1839 ft 172 kts 225°
2026-04-27 19:29 52.13963 -10.27267 1836 ft 175 kts 216°
2026-04-27 19:29 52.12830 -10.27977 1842 ft 175 kts 191°
2026-04-27 19:30 52.11624 -10.27897 1843 ft 173 kts 165°
2026-04-27 19:30 52.10561 -10.27062 1839 ft 168 kts 140°
2026-04-27 19:30 52.09828 -10.25640 1836 ft 162 kts 115°
2026-04-27 19:30 52.09543 -10.23921 1778 ft 155 kts 91°
2026-04-27 19:31 52.09535 -10.22188 1632 ft 153 kts 86°
2026-04-27 19:31 52.09614 -10.20458 1574 ft 153 kts 78°
2026-04-27 19:31 52.09912 -10.18817 1553 ft 151 kts 68°
2026-04-27 19:31 52.10285 -10.17216 1544 ft 152 kts 67°
2026-04-27 19:32 52.10669 -10.15639 1547 ft 150 kts 68°
2026-04-27 19:32 52.11021 -10.14039 1535 ft 152 kts 72°
2026-04-27 19:32 52.11311 -10.12389 1538 ft 151 kts 71°
2026-04-27 19:32 52.11688 -10.10807 1539 ft 149 kts 66°
2026-04-27 19:33 52.12083 -10.09250 1538 ft 149 kts 67°
2026-04-27 19:33 52.12361 -10.08194 1540 ft 150 kts 66°
2026-04-27 19:33 52.12912 -10.06123 1545 ft 149 kts 66°
2026-04-27 19:33 52.13176 -10.04474 1538 ft 151 kts 78°
2026-04-27 19:34 52.13330 -10.02789 1533 ft 151 kts 79°
2026-04-27 19:34 52.13518 -10.01097 1536 ft 152 kts 75°
2026-04-27 19:34 52.13779 -9.99436 1538 ft 152 kts 73°
2026-04-27 19:34 52.14059 -9.97779 1537 ft 152 kts 73°
2026-04-27 19:35 52.14304 -9.96145 1563 ft 139 kts 76°
2026-04-27 19:35 52.14416 -9.94746 1556 ft 113 kts 82°
2026-04-27 19:35 52.14467 -9.93539 1534 ft 107 kts 83°
2026-04-27 19:35 52.14530 -9.92326 1535 ft 108 kts 82°
2026-04-27 19:36 52.14602 -9.91118 1535 ft 107 kts 82°
2026-04-27 19:36 52.14737 -9.89937 1524 ft 109 kts 71°
2026-04-27 19:36 52.15038 -9.88664 1519 ft 130 kts 64°
2026-04-27 19:36 52.15419 -9.87355 1537 ft 127 kts 64°
2026-04-27 19:37 52.15761 -9.85959 1514 ft 142 kts 70°
2026-04-27 19:37 52.16037 -9.84392 1547 ft 142 kts 78°
2026-04-27 19:37 52.16194 -9.82798 1530 ft 145 kts 81°
2026-04-27 19:37 52.16414 -9.81209 1531 ft 143 kts 72°
2026-04-27 19:38 52.16720 -9.79664 1523 ft 144 kts 70°
2026-04-27 19:38 52.17038 -9.78122 1516 ft 142 kts 71°
2026-04-27 19:38 52.17359 -9.76593 1342 ft 144 kts 70°
2026-04-27 19:38 52.17675 -9.75055 1187 ft 144 kts 70°
2026-04-27 19:39 52.17977 -9.73528 1086 ft 145 kts 71°
2026-04-27 19:39 52.18221 -9.71952 1069 ft 136 kts 77°
2026-04-27 19:39 52.18364 -9.70590 1044 ft 110 kts 80°
2026-04-27 19:39 52.18481 -9.69395 1009 ft 109 kts 78°
2026-04-27 19:40 52.18620 -9.68161 1014 ft 111 kts 74°
2026-04-27 19:40 52.18823 -9.66969 1015 ft 109 kts 72°
2026-04-27 19:40 52.19033 -9.65782 1010 ft 109 kts 72°
2026-04-27 19:40 52.19245 -9.64594 1007 ft 110 kts 73°
2026-04-27 19:41 52.19468 -9.63410 1010 ft 109 kts 72°
2026-04-27 19:41 52.19687 -9.62223 1014 ft 109 kts 75°
2026-04-27 19:41 52.19635 -9.60977 1009 ft 116 kts 108°
2026-04-27 19:41 52.19327 -9.59825 1028 ft 101 kts 110°
2026-04-27 19:42 52.19118 -9.58835 1011 ft 87 kts 106°
2026-04-27 19:42 52.18940 -9.57884 1009 ft 89 kts 109°
2026-04-27 19:42 52.18634 -9.57012 1010 ft 87 kts 121°
2026-04-27 19:42 52.18322 -9.56236 961 ft 75 kts 129°
2026-04-27 19:43 52.17957 -9.55691 817 ft 66 kts 138°
2026-04-27 19:43 52.17683 -9.55198 628 ft 53 kts 117°
2026-04-27 19:43 52.17628 -9.54679 543 ft 41 kts 92°
2026-04-27 19:43 52.17694 -9.54299 509 ft 28 kts 78°
2026-04-27 19:44 52.17722 -9.54101 483 ft 11 kts 75°
2026-04-27 19:44 52.17741 -9.53987 479 ft 12 kts 71°
2026-04-27 19:44 52.17775 -9.53831 482 ft 17 kts 77°
2026-04-27 19:44 52.17779 -9.53772 478 ft 1 kts 77°
2026-04-27 19:45 52.17778 -9.53776 456 ft 0 kts 75°
2026-04-27 19:45 52.17778 -9.53775 374 ft 0 kts 76°
2026-04-27 19:45 52.17778 -9.53780 307 ft 1 kts 75°
2026-04-27 19:45 52.17781 -9.53781 227 ft 0 kts 66°
2026-04-27 19:46 52.17783 -9.53773 172 ft 2 kts 66°
2026-04-27 19:46 52.17789 -9.53752 141 ft 2 kts 66°
2026-04-27 19:46 52.17794 -9.53739 133 ft 1 kts 61°
2026-04-27 19:46 52.17794 -9.53736 121 ft 0 kts 61°
2026-04-27 19:47 52.17800 -9.53717 100 ft 6 kts 64°
2026-04-27 19:47 52.17825 -9.53623 99 ft 9 kts 66°
2026-04-27 19:48 52.17873 -9.53557 99 ft 11 kts 355°
2026-04-27 19:48 52.17943 -9.53592 100 ft 10 kts 342°
2026-04-27 19:48 52.18001 -9.53626 100 ft 8 kts 336°
2026-04-27 19:48 52.18045 -9.53668 100 ft 7 kts 330°
2026-04-27 19:49 52.18077 -9.53678 99 ft 3 kts 358°
2026-04-27 19:49 52.18098 -9.53661 100 ft 4 kts 49°
2026-04-27 19:49 52.18103 -9.53645 98 ft 1 kts 103°
2026-04-27 19:49 52.18101 -9.53638 98 ft 0 kts 145°